Weather in Kadiivka

Ukraine / Luhansk Region     48˚34′05″N   38˚38′47″E
temp.,
°C
wind,
m/s
gust,
m/s
humid.,
%
clouds,
%
prec.,
mm/h
press.,
hPa
HPBL,
m
3 december, thu
thu323:00−1˚ese61187100 0.0 1031543
02:00−1˚ese61087100 0.0 1031532
05:00−2˚ese61188100 0.0 1031459
08:00−2˚ese61087100 0.0 1031478
11:00−1˚ese61085100 0.0 1031534
14:00ese61086100 0.1 1031568
17:00ese71189100 0.2 1031510
20:00ese51090100 0.2 1030500
4 december, fri
fri423:00−1˚ese588999 0.0 1030435
02:00−2˚ese598999 0.0 1031387
05:00−2˚ese6108898 0.0 1030409
08:00−2˚ese698899 0.0 1031438
11:00−1˚ese6108799 0.0 1031466
14:00−1˚e6108899 0.0 1030431
17:00−1˚ese61187100 0.0 1031497
20:00−1˚ese61180100 0.0 1031534
5 december, sat
sat523:00−2˚e61176100 0.0 1032479
02:00−4˚e6117986 0.0 1032420
05:00−5˚e611770 0.0 1032402
08:00−5˚e611730 0.0 1033412
11:00−2˚e711600 0.0 1033471
14:00−2˚e711560 0.0 1033537
17:00−4˚e713640 0.0 1034446
20:00−5˚e612630 0.0 1035419
6 december, sun
sun623:00−6˚e612630 0.0 1035395
02:00−7˚e612650 0.0 1035365
05:00−8˚e612660 0.0 1035353
08:00−8˚e712640 0.0 1036362
11:00−5˚e711520 0.0 1036429
14:00−4˚e712490 0.0 1035489
17:00−6˚e713580 0.0 1035424
20:00−6˚e713690 0.0 1036407
7 december, mon
mon723:00−7˚e611800 0.0 1036413
02:00−8˚e612810 0.0 1036401
05:00−8˚e612780 0.0 1036367
08:00−8˚e611810 0.0 1037416
11:00−5˚e711620 0.0 1037540
14:00−4˚e711530 0.0 1036615
17:00−5˚e713620 0.0 1036472
20:00−6˚e612660 0.0 1036429